Wetterdaten: Freitag, 25.11.2016
Datum Zeit Temp. A. Aussentemp2 Feuchte A. Luftdruck Regen Wind Richtung Richtung Sonnenschein Helligkeit Solar
25.11.2016 00:00 5,5 C 9,3 C 78 % 1019,9 hPa 0,0 l/m 20,5 km/h (4 Bft) NO22.5 45 0 min 0 lux 0 W/m
25.11.2016 00:05 5,4 C 9,2 C 79 % 1019,9 hPa 0,0 l/m 26,7 km/h (4 Bft) NO45 45 0 min 0 lux 0 W/m
25.11.2016 00:10 5,4 C 9,3 C 79 % 1019,9 hPa 0,0 l/m 24,0 km/h (4 Bft) NO45 45 0 min 0 lux 0 W/m
25.11.2016 00:15 5,4 C 9,3 C 79 % 1019,9 hPa 0,0 l/m 18,5 km/h (3 Bft) NO22.5 45 0 min 0 lux 0 W/m
25.11.2016 00:20 5,4 C 9,3 C 79 % 1019,9 hPa 0,0 l/m 25,8 km/h (4 Bft) NO22.5 35 0 min 0 lux 0 W/m
25.11.2016 00:25 5,4 C 9,1 C 79 % 1019,9 hPa 0,0 l/m 16,7 km/h (3 Bft) NO45 45 0 min 0 lux 0 W/m
25.11.2016 00:30 5,4 C 9,3 C 79 % 1019,9 hPa 0,0 l/m 27,1 km/h (5 Bft) NO22.5 45 0 min 0 lux 0 W/m
25.11.2016 00:35 5,4 C 9,3 C 79 % 1019,9 hPa 0,0 l/m 25,0 km/h (4 Bft) NO45 40 0 min 0 lux 0 W/m
25.11.2016 00:40 5,4 C 9,3 C 80 % 1019,9 hPa 0,0 l/m 25,1 km/h (4 Bft) NO67.5 50 0 min 0 lux 0 W/m
25.11.2016 00:45 5,4 C 9,3 C 80 % 1019,9 hPa 0,0 l/m 23,4 km/h (4 Bft) NO45 50 0 min 0 lux 0 W/m
25.11.2016 00:50 5,3 C 9,3 C 80 % 1019,9 hPa 0,0 l/m 40,8 km/h (6 Bft) NO45 35 0 min 0 lux 0 W/m
25.11.2016 00:55 5,3 C 9,3 C 80 % 1019,9 hPa 0,0 l/m 32,7 km/h (5 Bft) NO45 45 0 min 0 lux 0 W/m
25.11.2016 01:00 5,3 C 9,3 C 80 % 1019,9 hPa 0,0 l/m 39,2 km/h (6 Bft) NO22.5 40 0 min 0 lux 0 W/m
25.11.2016 01:05 5,3 C 9,2 C 80 % 1019,9 hPa 0,0 l/m 37,7 km/h (5 Bft) NO45 45 0 min 0 lux 0 W/m
25.11.2016 01:10 5,3 C 9,2 C 80 % 1019,9 hPa 0,0 l/m 33,9 km/h (5 Bft) NO67.5 55 0 min 0 lux 0 W/m
25.11.2016 01:15 5,3 C 9,2 C 80 % 1019,9 hPa 0,0 l/m 32,9 km/h (5 Bft) NO45 45 0 min 0 lux 0 W/m
25.11.2016 01:20 5,3 C 9,2 C 80 % 1019,9 hPa 0,0 l/m 29,7 km/h (5 Bft) NO67.5 55 0 min 0 lux 0 W/m
25.11.2016 01:25 5,3 C 9,2 C 80 % 1019,9 hPa 0,0 l/m 32,7 km/h (5 Bft) NO45 40 0 min 0 lux 0 W/m
25.11.2016 01:30 5,3 C 9,2 C 80 % 1019,9 hPa 0,0 l/m 29,1 km/h (5 Bft) NO45 45 0 min 0 lux 0 W/m
25.11.2016 01:35 5,4 C 9,2 C 80 % 1019,9 hPa 0,0 l/m 18,9 km/h (3 Bft) O-NO67.5 65 0 min 0 lux 0 W/m
25.11.2016 01:40 5,4 C 9,2 C 80 % 1019,9 hPa 0,0 l/m 25,3 km/h (4 Bft) O-NO45 65 0 min 0 lux 0 W/m
25.11.2016 01:45 5,5 C 9,2 C 80 % 1019,9 hPa 0,0 l/m 30,4 km/h (5 Bft) NO67.5 55 0 min 0 lux 0 W/m
25.11.2016 01:50 5,4 C 9,3 C 80 % 1019,9 hPa 0,0 l/m 21,6 km/h (4 Bft) O67.5 85 0 min 0 lux 0 W/m
25.11.2016 01:55 5,4 C 9,1 C 80 % 1019,9 hPa 0,0 l/m 16,6 km/h (3 Bft) O-NO45 60 0 min 0 lux 0 W/m
25.11.2016 02:00 5,3 C 9,2 C 80 % 1019,9 hPa 0,0 l/m 15,0 km/h (3 Bft) NO45 45 0 min 0 lux 0 W/m
25.11.2016 02:05 5,2 C 9,3 C 80 % 1019,9 hPa 0,0 l/m 16,5 km/h (3 Bft) NO45 45 0 min 0 lux 0 W/m
25.11.2016 02:10 4,9 C 9,2 C 80 % 1019,9 hPa 0,0 l/m 19,1 km/h (3 Bft) NO22.5 55 0 min 0 lux 0 W/m
25.11.2016 02:15 4,9 C 9,2 C 80 % 1019,9 hPa 0,0 l/m 14,5 km/h (3 Bft) NO67.5 50 0 min 0 lux 0 W/m
25.11.2016 02:20 4,9 C 9,2 C 80 % 1019,9 hPa 0,0 l/m 28,9 km/h (5 Bft) O-NO45 60 0 min 0 lux 0 W/m
25.11.2016 02:25 4,9 C 9,2 C 80 % 1019,9 hPa 0,0 l/m 27,3 km/h (5 Bft) NO45 55 0 min 0 lux 0 W/m
25.11.2016 02:30 4,9 C 9,2 C 80 % 1019,9 hPa 0,0 l/m 20,4 km/h (4 Bft) O45 80 0 min 0 lux 0 W/m
25.11.2016 02:35 4,9 C 9,2 C 80 % 1019,9 hPa 0,0 l/m 18,6 km/h (3 Bft) NO22.5 50 0 min 0 lux 0 W/m
25.11.2016 02:40 4,9 C 9,2 C 80 % 1019,9 hPa 0,0 l/m 22,5 km/h (4 Bft) O-NO45 65 0 min 0 lux 0 W/m
25.11.2016 02:45 4,9 C 9,2 C 80 % 1019,9 hPa 0,0 l/m 18,8 km/h (3 Bft) NO22.5 40 0 min 0 lux 0 W/m
25.11.2016 02:50 4,8 C 9,2 C 80 % 1019,9 hPa 0,0 l/m 17,0 km/h (3 Bft) N-NO22.5 30 0 min 0 lux 0 W/m
25.11.2016 02:55 4,7 C 9,2 C 80 % 1019,9 hPa 0,0 l/m 19,8 km/h (3 Bft) NO22.5 45 0 min 0 lux 0 W/m
25.11.2016 03:00 4,6 C 9,2 C 80 % 1019,9 hPa 0,0 l/m 23,6 km/h (4 Bft) NO22.5 45 0 min 0 lux 0 W/m
25.11.2016 03:05 4,5 C 9,2 C 81 % 1019,9 hPa 0,0 l/m 26,3 km/h (4 Bft) NO22.5 40 0 min 0 lux 0 W/m
25.11.2016 03:10 4,4 C 9,2 C 81 % 1018,9 hPa 0,0 l/m 30,5 km/h (5 Bft) NO45 40 0 min 0 lux 0 W/m
25.11.2016 03:15 4,4 C 9,1 C 81 % 1018,9 hPa 0,0 l/m 38,8 km/h (6 Bft) NO45 40 0 min 0 lux 0 W/m
25.11.2016 03:20 4,3 C 9,1 C 81 % 1018,9 hPa 0,0 l/m 39,6 km/h (6 Bft) NO67.5 45 0 min 0 lux 0 W/m
25.11.2016 03:25 4,3 C 9,1 C 81 % 1018,9 hPa 0,0 l/m 33,5 km/h (5 Bft) NO45 45 0 min 0 lux 0 W/m
25.11.2016 03:30 4,3 C 9,1 C 81 % 1018,9 hPa 0,0 l/m 33,2 km/h (5 Bft) NO22.5 40 0 min 0 lux 0 W/m
25.11.2016 03:35 4,3 C 9,1 C 82 % 1018,9 hPa 0,0 l/m 33,2 km/h (5 Bft) NO22.5 40 0 min 0 lux 0 W/m
25.11.2016 03:40 4,3 C 9,1 C 82 % 1018,9 hPa 0,0 l/m 35,1 km/h (5 Bft) NO22.5 45 0 min 0 lux 0 W/m
25.11.2016 03:45 4,3 C 9,1 C 81 % 1018,9 hPa 0,0 l/m 37,3 km/h (5 Bft) NO22.5 40 0 min 0 lux 0 W/m
25.11.2016 03:50 4,3 C 9,1 C 81 % 1018,9 hPa 0,0 l/m 31,7 km/h (5 Bft) NO45 35 0 min 0 lux 0 W/m
25.11.2016 03:55 4,3 C 9,0 C 81 % 1018,9 hPa 0,0 l/m 31,2 km/h (5 Bft) NO22.5 40 0 min 0 lux 0 W/m
25.11.2016 04:00 4,2 C 9,0 C 81 % 1018,9 hPa 0,0 l/m 28,8 km/h (5 Bft) NO45 45 0 min 0 lux 0 W/m
25.11.2016 04:05 4,2 C 9,1 C 82 % 1018,9 hPa 0,0 l/m 25,3 km/h (4 Bft) NO67.5 40 0 min 0 lux 0 W/m
25.11.2016 04:10 4,1 C 9,1 C 82 % 1018,9 hPa 0,0 l/m 17,1 km/h (3 Bft) NO22.5 40 0 min 0 lux 0 W/m
25.11.2016 04:15 4,1 C 9,1 C 82 % 1018,9 hPa 0,0 l/m 22,4 km/h (4 Bft) NO22.5 40 0 min 0 lux 0 W/m
25.11.2016 04:20 4,0 C 9,1 C 82 % 1018,9 hPa 0,0 l/m 16,3 km/h (3 Bft) O-NO22.5 60 0 min 0 lux 0 W/m
25.11.2016 04:25 4,0 C 9,1 C 82 % 1018,9 hPa 0,0 l/m 13,4 km/h (3 Bft) NO22.5 40 0 min 0 lux 0 W/m
25.11.2016 04:30 3,9 C 9,1 C 82 % 1018,9 hPa 0,0 l/m 12,0 km/h (2 Bft) N-NO45 30 0 min 0 lux 0 W/m
25.11.2016 04:35 3,9 C 9,1 C 82 % 1018,9 hPa 0,0 l/m 19,8 km/h (3 Bft) N-NO22.5 30 0 min 0 lux 0 W/m
25.11.2016 04:40 3,9 C 9,1 C 82 % 1018,9 hPa 0,0 l/m 22,8 km/h (4 Bft) N-NO45 30 0 min 0 lux 0 W/m
25.11.2016 04:45 3,9 C 9,1 C 82 % 1018,9 hPa 0,0 l/m 30,1 km/h (5 Bft) N-NO22.5 25 0 min 0 lux 0 W/m
25.11.2016 04:50 3,9 C 9,0 C 82 % 1018,9 hPa 0,0 l/m 24,3 km/h (4 Bft) NO45 40 0 min 0 lux 0 W/m
25.11.2016 04:55 3,8 C 9,1 C 82 % 1018,9 hPa 0,0 l/m 29,1 km/h (5 Bft) NO22.5 40 0 min 0 lux 0 W/m
25.11.2016 05:00 3,8 C 9,1 C 82 % 1018,9 hPa 0,0 l/m 30,2 km/h (5 Bft) NO22.5 45 0 min 0 lux 0 W/m
25.11.2016 05:05 3,8 C 9,1 C 83 % 1018,9 hPa 0,0 l/m 23,8 km/h (4 Bft) NO22.5 40 0 min 0 lux 0 W/m
25.11.2016 05:10 3,8 C 9,0 C 83 % 1018,9 hPa 0,0 l/m 27,2 km/h (5 Bft) NO45 50 0 min 0 lux 0 W/m
25.11.2016 05:15 3,8 C 9,0 C 83 % 1018,9 hPa 0,0 l/m 21,8 km/h (4 Bft) NO22.5 50 0 min 0 lux 0 W/m
25.11.2016 05:20 3,8 C 9,0 C 83 % 1018,9 hPa 0,0 l/m 16,5 km/h (3 Bft) NO45 50 0 min 0 lux 0 W/m
25.11.2016 05:25 3,8 C 9,0 C 83 % 1018,9 hPa 0,0 l/m 14,2 km/h (3 Bft) N-NO67.5 30 0 min 0 lux 0 W/m
25.11.2016 05:30 3,7 C 9,0 C 83 % 1018,9 hPa 0,0 l/m 18,6 km/h (3 Bft) N-NO22.5 30 0 min 0 lux 0 W/m
25.11.2016 05:35 3,7 C 9,0 C 83 % 1018,9 hPa 0,0 l/m 28,6 km/h (5 Bft) N-NO45 30 0 min 0 lux 0 W/m
25.11.2016 05:40 3,7 C 9,0 C 83 % 1018,9 hPa 0,0 l/m 34,0 km/h (5 Bft) NO22.5 40 0 min 0 lux 0 W/m
25.11.2016 05:45 3,7 C 9,0 C 82 % 1018,9 hPa 0,0 l/m 43,4 km/h (6 Bft) NO22.5 40 0 min 0 lux 0 W/m
25.11.2016 05:50 3,6 C 8,9 C 82 % 1018,9 hPa 0,0 l/m 28,7 km/h (5 Bft) NO45 45 0 min 0 lux 0 W/m
25.11.2016 05:55 3,6 C 9,0 C 83 % 1018,9 hPa 0,0 l/m 33,4 km/h (5 Bft) NO22.5 40 0 min 0 lux 0 W/m
25.11.2016 06:00 3,6 C 9,0 C 83 % 1018,9 hPa 0,0 l/m 24,2 km/h (4 Bft) NO45 55 0 min 0 lux 0 W/m
25.11.2016 06:05 3,6 C 9,0 C 83 % 1018,9 hPa 0,0 l/m 26,5 km/h (4 Bft) NO45 50 0 min 0 lux 0 W/m
25.11.2016 06:10 3,7 C 9,0 C 82 % 1018,9 hPa 0,0 l/m 22,5 km/h (4 Bft) NO67.5 45 0 min 0 lux 0 W/m
25.11.2016 06:15 3,7 C 8,9 C 82 % 1018,9 hPa 0,0 l/m 23,5 km/h (4 Bft) O-NO45 75 0 min 0 lux 0 W/m
25.11.2016 06:20 3,6 C 8,9 C 82 % 1018,9 hPa 0,0 l/m 27,1 km/h (5 Bft) NO45 50 0 min 0 lux 0 W/m
25.11.2016 06:25 3,6 C 8,9 C 81 % 1018,9 hPa 0,0 l/m 25,8 km/h (4 Bft) O-NO67.5 70 0 min 0 lux 0 W/m
25.11.2016 06:30 3,6 C 8,9 C 81 % 1018,9 hPa 0,0 l/m 21,2 km/h (4 Bft) O67.5 85 0 min 0 lux 0 W/m
25.11.2016 06:36 3,5 C 8,9 C 81 % 1018,9 hPa 0,0 l/m 24,4 km/h (4 Bft) NO45 55 0 min 0 lux 0 W/m
25.11.2016 06:40 3,5 C 8,9 C 81 % 1018,9 hPa 0,0 l/m 22,4 km/h (4 Bft) O45 95 0 min 0 lux 0 W/m
25.11.2016 06:45 3,5 C 8,9 C 81 % 1018,9 hPa 0,0 l/m 23,9 km/h (4 Bft) O45 85 0 min 0 lux 0 W/m
25.11.2016 06:50 3,4 C 8,9 C 81 % 1018,9 hPa 0,0 l/m 24,3 km/h (4 Bft) O45 80 0 min 0 lux 0 W/m
25.11.2016 06:55 3,5 C 8,9 C 80 % 1018,9 hPa 0,0 l/m 22,9 km/h (4 Bft) O-NO45 75 0 min 0 lux 0 W/m
25.11.2016 07:00 3,5 C 8,8 C 80 % 1018,9 hPa 0,0 l/m 24,0 km/h (4 Bft) O-NO45 65 0 min 0 lux 0 W/m
25.11.2016 07:05 3,5 C 8,9 C 80 % 1018,9 hPa 0,0 l/m 24,5 km/h (4 Bft) O-NO45 65 0 min 0 lux 0 W/m
25.11.2016 07:10 3,5 C 8,8 C 80 % 1018,9 hPa 0,0 l/m 23,2 km/h (4 Bft) NO45 50 0 min 0 lux 0 W/m
25.11.2016 07:15 3,5 C 8,8 C 80 % 1018,9 hPa 0,0 l/m 22,8 km/h (4 Bft) NO67.5 40 0 min 0 lux 0 W/m
25.11.2016 07:20 3,4 C 8,9 C 80 % 1018,9 hPa 0,0 l/m 19,7 km/h (3 Bft) NO45 45 0 min 0 lux 0 W/m
25.11.2016 07:25 3,3 C 8,8 C 81 % 1018,9 hPa 0,0 l/m 24,2 km/h (4 Bft) NO22.5 45 0 min 0 lux 0 W/m
25.11.2016 07:30 3,3 C 8,9 C 81 % 1018,9 hPa 0,0 l/m 21,6 km/h (4 Bft) NO45 40 0 min 0 lux 0 W/m
25.11.2016 07:35 3,3 C 8,8 C 81 % 1018,9 hPa 0,0 l/m 21,6 km/h (4 Bft) NO45 40 0 min 0 lux 0 W/m
25.11.2016 07:40 3,3 C 8,8 C 81 % 1018,9 hPa 0,0 l/m 16,5 km/h (3 Bft) NO45 45 0 min 0 lux 0 W/m
25.11.2016 07:45 3,2 C 8,8 C 81 % 1018,9 hPa 0,0 l/m 22,8 km/h (4 Bft) NO22.5 50 0 min 0 lux 0 W/m
25.11.2016 07:50 3,1 C 8,8 C 81 % 1018,9 hPa 0,0 l/m 24,8 km/h (4 Bft) NO22.5 50 0 min 0 lux 0 W/m
25.11.2016 07:55 3,2 C 8,8 C 81 % 1018,9 hPa 0,0 l/m 32,9 km/h (5 Bft) O-NO45 60 0 min 0 lux 0 W/m
25.11.2016 08:00 3,3 C 8,8 C 80 % 1018,9 hPa 0,0 l/m 32,2 km/h (5 Bft) O-NO45 65 0 min 0 lux 0 W/m
25.11.2016 08:05 3,3 C 8,8 C 80 % 1018,9 hPa 0,0 l/m 25,4 km/h (4 Bft) NO45 50 0 min 0 lux 0 W/m
25.11.2016 08:10 3,3 C 8,3 C 80 % 1018,9 hPa 0,0 l/m 31,1 km/h (5 Bft) O-NO45 65 0 min 0 lux 0 W/m
25.11.2016 08:15 3,3 C 8,2 C 80 % 1018,9 hPa 0,0 l/m 25,8 km/h (4 Bft) O67.5 80 0 min 0 lux 0 W/m
25.11.2016 08:20 3,2 C 8,1 C 80 % 1018,9 hPa 0,0 l/m 24,2 km/h (4 Bft) O-NO67.5 75 0 min 0 lux 0 W/m
25.11.2016 08:25 3,2 C 8,1 C 80 % 1018,9 hPa 0,0 l/m 26,8 km/h (4 Bft) O-NO67.5 60 0 min 0 lux 0 W/m
25.11.2016 08:30 3,1 C 8,0 C 80 % 1018,9 hPa 0,0 l/m 19,6 km/h (3 Bft) O45 85 0 min 0 lux 0 W/m
25.11.2016 08:35 3,1 C 8,0 C 80 % 1018,9 hPa 0,0 l/m 33,4 km/h (5 Bft) O-NO22.5 70 0 min 0 lux 0 W/m
25.11.2016 08:40 3,1 C 7,9 C 80 % 1018,9 hPa 0,0 l/m 16,7 km/h (3 Bft) NO45 55 0 min 0 lux 0 W/m
25.11.2016 08:45 3,1 C 7,8 C 80 % 1018,9 hPa 0,0 l/m 28,7 km/h (5 Bft) NO45 50 0 min 0 lux 0 W/m
25.11.2016 08:50 3,3 C 7,9 C 80 % 1018,9 hPa 0,0 l/m 34,3 km/h (5 Bft) O-NO67.5 60 0 min 0 lux 0 W/m
25.11.2016 08:55 3,3 C 8,0 C 80 % 1018,9 hPa 0,0 l/m 24,9 km/h (4 Bft) NO45 50 0 min 0 lux 0 W/m
25.11.2016 09:00 3,4 C 7,8 C 79 % 1018,9 hPa 0,0 l/m 26,4 km/h (4 Bft) O-NO67.5 65 0 min 0 lux 0 W/m
25.11.2016 09:05 3,4 C 7,8 C 79 % 1019,9 hPa 0,0 l/m 19,6 km/h (3 Bft) NO22.5 35 0 min 0 lux 0 W/m
25.11.2016 09:10 3,3 C 7,7 C 79 % 1019,9 hPa 0,0 l/m 22,1 km/h (4 Bft) NO45 55 0 min 0 lux 0 W/m
25.11.2016 09:15 3,5 C 7,8 C 79 % 1019,9 hPa 0,0 l/m 24,1 km/h (4 Bft) O-NO45 70 0 min 0 lux 0 W/m
25.11.2016 09:20 3,8 C 7,9 C 79 % 1019,9 hPa 0,0 l/m 17,8 km/h (3 Bft) NO45 50 0 min 0 lux 0 W/m
25.11.2016 09:25 4,0 C 7,9 C 78 % 1019,9 hPa 0,0 l/m 23,5 km/h (4 Bft) NO67.5 50 0 min 0 lux 0 W/m
25.11.2016 09:30 4,1 C 7,8 C 77 % 1019,9 hPa 0,0 l/m 23,8 km/h (4 Bft) O-NO67.5 70 0 min 0 lux 0 W/m
25.11.2016 09:35 4,4 C 7,8 C 77 % 1019,9 hPa 0,0 l/m 18,6 km/h (3 Bft) NO45 40 0 min 0 lux 0 W/m
25.11.2016 09:40 4,5 C 7,8 C 75 % 1019,9 hPa 0,0 l/m 17,6 km/h (3 Bft) O-NO67.5 75 0 min 0 lux 0 W/m
25.11.2016 09:45 4,6 C 8,0 C 75 % 1018,9 hPa 0,0 l/m 15,7 km/h (3 Bft) O-NO45 75 0 min 0 lux 0 W/m
25.11.2016 09:51 4,7 C 8,0 C 74 % 1019,9 hPa 0,0 l/m 11,3 km/h (2 Bft) O-NO45 75 0 min 0 lux 0 W/m
25.11.2016 09:55 4,8 C 7,8 C 73 % 1019,9 hPa 0,0 l/m 22,5 km/h (4 Bft) O45 85 0 min 0 lux 0 W/m
25.11.2016 10:00 4,9 C 7,7 C 73 % 1019,9 hPa 0,0 l/m 24,3 km/h (4 Bft) O67.5 90 0 min 0 lux 0 W/m
25.11.2016 10:05 4,9 C 7,8 C 72 % 1019,9 hPa 0,0 l/m 15,9 km/h (3 Bft) O-NO67.5 65 0 min 0 lux 0 W/m
25.11.2016 10:10 5,3 C 7,8 C 72 % 1019,9 hPa 0,0 l/m 26,7 km/h (4 Bft) NO45 50 0 min 0 lux 0 W/m
25.11.2016 10:15 5,4 C 7,7 C 71 % 1019,9 hPa 0,0 l/m 25,4 km/h (4 Bft) NO67.5 55 0 min 0 lux 0 W/m
25.11.2016 10:20 5,5 C 7,8 C 70 % 1019,9 hPa 0,0 l/m 23,8 km/h (4 Bft) O-NO45 60 0 min 0 lux 0 W/m
25.11.2016 10:25 5,7 C 7,9 C 70 % 1019,9 hPa 0,0 l/m 24,9 km/h (4 Bft) O67.5 85 0 min 0 lux 0 W/m
25.11.2016 10:30 5,7 C 8,0 C 69 % 1018,9 hPa 0,0 l/m 24,0 km/h (4 Bft) O-NO22.5 70 0 min 0 lux 0 W/m
25.11.2016 10:35 5,7 C 7,9 C 69 % 1018,9 hPa 0,0 l/m 19,1 km/h (3 Bft) O67.5 90 0 min 0 lux 0 W/m
25.11.2016 10:40 6,1 C 8,1 C 68 % 1018,9 hPa 0,0 l/m 8,8 km/h (2 Bft) O-NO45 60 0 min 0 lux 0 W/m
25.11.2016 10:45 6,1 C 7,9 C 67 % 1019,9 hPa 0,0 l/m 19,3 km/h (3 Bft) O-NO67.5 70 0 min 0 lux 0 W/m
25.11.2016 10:50 6,2 C 8,0 C 68 % 1019,9 hPa 0,0 l/m 23,6 km/h (4 Bft) O-NO45 70 0 min 0 lux 0 W/m
25.11.2016 10:55 6,3 C 8,0 C 67 % 1019,9 hPa 0,0 l/m 19,0 km/h (3 Bft) O45 85 0 min 0 lux 0 W/m
25.11.2016 11:00 6,4 C 8,0 C 66 % 1019,9 hPa 0,0 l/m 24,3 km/h (4 Bft) O-NO45 65 0 min 0 lux 0 W/m
25.11.2016 11:05 6,5 C 7,9 C 65 % 1019,9 hPa 0,0 l/m 21,8 km/h (4 Bft) O-NO22.5 70 0 min 0 lux 0 W/m
25.11.2016 11:10 6,6 C 7,9 C 65 % 1019,9 hPa 0,0 l/m 30,8 km/h (5 Bft) NO45 45 0 min 0 lux 0 W/m
25.11.2016 11:15 6,8 C 8,0 C 64 % 1019,9 hPa 0,0 l/m 26,1 km/h (4 Bft) O-NO45 65 0 min 0 lux 0 W/m
25.11.2016 11:20 7,0 C 8,1 C 64 % 1019,8 hPa 0,0 l/m 23,9 km/h (4 Bft) O-NO22.5 70 0 min 0 lux 0 W/m
25.11.2016 11:25 7,2 C 8,1 C 65 % 1019,8 hPa 0,0 l/m 27,5 km/h (5 Bft) NO45 50 0 min 0 lux 0 W/m
25.11.2016 11:30 7,3 C 8,1 C 62 % 1019,8 hPa 0,0 l/m 30,5 km/h (5 Bft) O-NO67.5 60 0 min 0 lux 0 W/m
25.11.2016 11:35 7,4 C 8,0 C 61 % 1019,8 hPa 0,0 l/m 28,3 km/h (5 Bft) NO45 45 0 min 0 lux 0 W/m
25.11.2016 11:40 7,5 C 8,0 C 62 % 1019,8 hPa 0,0 l/m 27,4 km/h (5 Bft) O45 80 0 min 0 lux 0 W/m
25.11.2016 11:45 7,6 C 8,1 C 62 % 1019,8 hPa 0,0 l/m 22,6 km/h (4 Bft) O-NO45 70 0 min 0 lux 0 W/m
25.11.2016 11:50 7,7 C 8,1 C 62 % 1019,8 hPa 0,0 l/m 19,8 km/h (3 Bft) NO45 50 0 min 0 lux 0 W/m
25.11.2016 11:55 7,8 C 8,1 C 62 % 1019,8 hPa 0,0 l/m 27,2 km/h (5 Bft) NO22.5 40 0 min 0 lux 0 W/m
25.11.2016 12:00 7,8 C 8,2 C 61 % 1019,8 hPa 0,0 l/m 18,5 km/h (3 Bft) O-NO45 65 0 min 0 lux 0 W/m
25.11.2016 12:05 8,0 C 8,3 C 60 % 1018,8 hPa 0,0 l/m 23,1 km/h (4 Bft) NO22.5 40 0 min 0 lux 0 W/m
25.11.2016 12:11 7,6 C 8,2 C 60 % 1018,8 hPa 0,0 l/m 26,5 km/h (4 Bft) NO45 45 0 min 0 lux 0 W/m
25.11.2016 12:15 7,6 C 8,2 C 60 % 1019,8 hPa 0,0 l/m 27,8 km/h (5 Bft) NO22.5 45 0 min 0 lux 0 W/m
25.11.2016 12:20 8,0 C 8,2 C 60 % 1018,8 hPa 0,0 l/m 28,1 km/h (5 Bft) NO22.5 50 0 min 0 lux 0 W/m
25.11.2016 12:25 8,2 C 8,3 C 60 % 1018,8 hPa 0,0 l/m 26,6 km/h (4 Bft) NO22.5 45 0 min 0 lux 0 W/m
25.11.2016 12:30 8,3 C 8,2 C 60 % 1018,8 hPa 0,0 l/m 19,9 km/h (4 Bft) NO22.5 55 0 min 0 lux 0 W/m
25.11.2016 12:35 8,3 C 8,2 C 59 % 1018,8 hPa 0,0 l/m 31,7 km/h (5 Bft) NO22.5 45 0 min 0 lux 0 W/m
25.11.2016 12:40 8,1 C 8,2 C 59 % 1018,8 hPa 0,0 l/m 32,7 km/h (5 Bft) NO22.5 45 0 min 0 lux 0 W/m
25.11.2016 12:45 8,2 C 8,3 C 59 % 1018,8 hPa 0,0 l/m 28,7 km/h (5 Bft) NO22.5 45 0 min 0 lux 0 W/m
25.11.2016 12:50 8,4 C 8,3 C 59 % 1018,8 hPa 0,0 l/m 29,3 km/h (5 Bft) NO22.5 45 0 min 0 lux 0 W/m
25.11.2016 12:55 8,5 C 8,4 C 58 % 1018,8 hPa 0,0 l/m 26,6 km/h (4 Bft) NO22.5 40 0 min 0 lux 0 W/m
25.11.2016 13:00 8,8 C 8,3 C 58 % 1018,8 hPa 0,0 l/m 24,9 km/h (4 Bft) NO22.5 45 0 min 0 lux 0 W/m
25.11.2016 13:05 8,8 C 8,5 C 58 % 1018,8 hPa 0,0 l/m 22,1 km/h (4 Bft) NO45 50 0 min 0 lux 0 W/m
25.11.2016 13:10 8,9 C 8,6 C 57 % 1018,8 hPa 0,0 l/m 26,0 km/h (4 Bft) NO22.5 45 0 min 0 lux 0 W/m
25.11.2016 13:15 8,8 C 8,5 C 56 % 1018,8 hPa 0,0 l/m 34,8 km/h (5 Bft) O-NO45 65 0 min 0 lux 0 W/m
25.11.2016 13:20 8,8 C 8,5 C 57 % 1018,8 hPa 0,0 l/m 20,4 km/h (4 Bft) O-NO45 60 0 min 0 lux 0 W/m
25.11.2016 13:25 9,0 C 8,5 C 58 % 1018,8 hPa 0,0 l/m 27,2 km/h (5 Bft) NO22.5 50 0 min 0 lux 0 W/m
25.11.2016 13:30 9,0 C 8,5 C 56 % 1018,8 hPa 0,0 l/m 28,3 km/h (5 Bft) O-NO67.5 70 0 min 0 lux 0 W/m
25.11.2016 13:35 8,9 C 8,6 C 56 % 1018,8 hPa 0,0 l/m 27,0 km/h (5 Bft) NO45 50 0 min 0 lux 0 W/m
25.11.2016 13:40 9,0 C 8,6 C 56 % 1018,8 hPa 0,0 l/m 25,8 km/h (4 Bft) NO45 45 0 min 0 lux 0 W/m
25.11.2016 13:45 9,0 C 8,7 C 56 % 1018,8 hPa 0,0 l/m 25,8 km/h (4 Bft) NO45 45 0 min 0 lux 0 W/m
25.11.2016 13:50 8,9 C 8,8 C 56 % 1018,8 hPa 0,0 l/m 26,8 km/h (4 Bft) NO45 40 0 min 0 lux 0 W/m
25.11.2016 13:56 9,2 C 8,9 C 56 % 1018,8 hPa 0,0 l/m 24,8 km/h (4 Bft) NO45 40 0 min 0 lux 0 W/m
25.11.2016 14:00 9,1 C 9,0 C 56 % 1018,8 hPa 0,0 l/m 26,8 km/h (4 Bft) NO22.5 45 0 min 0 lux 0 W/m
25.11.2016 14:05 9,2 C 9,4 C 56 % 1018,8 hPa 0,0 l/m 26,3 km/h (4 Bft) NO45 50 0 min 0 lux 0 W/m
25.11.2016 14:10 9,2 C 9,6 C 56 % 1018,8 hPa 0,0 l/m 19,0 km/h (3 Bft) NO45 40 0 min 0 lux 0 W/m
25.11.2016 14:15 9,3 C 9,7 C 55 % 1018,8 hPa 0,0 l/m 20,1 km/h (4 Bft) NO22.5 40 0 min 0 lux 0 W/m
25.11.2016 14:20 9,4 C 9,8 C 55 % 1018,8 hPa 0,0 l/m 21,2 km/h (4 Bft) NO22.5 50 0 min 0 lux 0 W/m
25.11.2016 14:25 9,2 C 9,8 C 55 % 1018,8 hPa 0,0 l/m 26,3 km/h (4 Bft) NO67.5 40 0 min 0 lux 0 W/m
25.11.2016 14:30 9,4 C 9,8 C 55 % 1018,8 hPa 0,0 l/m 29,8 km/h (5 Bft) NO22.5 40 0 min 0 lux 0 W/m
25.11.2016 14:35 9,1 C 9,5 C 55 % 1017,8 hPa 0,0 l/m 32,2 km/h (5 Bft) NO45 40 0 min 0 lux 0 W/m
25.11.2016 14:41 9,0 C 9,3 C 55 % 1017,8 hPa 0,0 l/m 32,2 km/h (5 Bft) NO45 40 0 min 0 lux 0 W/m
25.11.2016 14:45 8,8 C 9,2 C 56 % 1017,8 hPa 0,0 l/m 29,8 km/h (5 Bft) NO22.5 40 0 min 0 lux 0 W/m
25.11.2016 14:50 8,7 C 9,2 C 55 % 1017,8 hPa 0,0 l/m 31,3 km/h (5 Bft) NO22.5 50 0 min 0 lux 0 W/m
25.11.2016 14:55 8,6 C 9,1 C 55 % 1018,8 hPa 0,0 l/m 35,1 km/h (5 Bft) NO22.5 45 0 min 0 lux 0 W/m
25.11.2016 15:00 8,6 C 9,1 C 56 % 1017,8 hPa 0,0 l/m 31,6 km/h (5 Bft) NO22.5 50 0 min 0 lux 0 W/m
25.11.2016 15:05 8,6 C 9,1 C 55 % 1017,8 hPa 0,0 l/m 34,9 km/h (5 Bft) NO45 40 0 min 0 lux 0 W/m
25.11.2016 15:10 8,6 C 9,1 C 56 % 1017,8 hPa 0,0 l/m 27,3 km/h (5 Bft) NO45 50 0 min 0 lux 0 W/m
25.11.2016 15:15 8,6 C 9,1 C 55 % 1017,8 hPa 0,0 l/m 37,2 km/h (5 Bft) O-NO22.5 60 0 min 0 lux 0 W/m
25.11.2016 15:20 8,6 C 9,1 C 56 % 1017,8 hPa 0,0 l/m 34,5 km/h (5 Bft) NO22.5 40 0 min 0 lux 0 W/m
25.11.2016 15:25 8,5 C 9,1 C 56 % 1017,8 hPa 0,0 l/m 33,0 km/h (5 Bft) NO22.5 45 0 min 0 lux 0 W/m
25.11.2016 15:30 8,5 C 9,0 C 56 % 1017,8 hPa 0,0 l/m 33,2 km/h (5 Bft) NO45 50 0 min 0 lux 0 W/m
25.11.2016 15:35 8,5 C 9,0 C 56 % 1017,8 hPa 0,0 l/m 31,3 km/h (5 Bft) NO45 40 0 min 0 lux 0 W/m
25.11.2016 15:40 8,6 C 9,1 C 55 % 1018,8 hPa 0,0 l/m 34,9 km/h (5 Bft) NO67.5 45 0 min 0 lux 0 W/m
25.11.2016 15:45 8,6 C 9,0 C 55 % 1018,8 hPa 0,0 l/m 33,0 km/h (5 Bft) O-NO45 60 0 min 0 lux 0 W/m
25.11.2016 15:50 8,6 C 9,0 C 53 % 1018,8 hPa 0,0 l/m 31,8 km/h (5 Bft) NO45 50 0 min 0 lux 0 W/m
25.11.2016 15:55 8,6 C 9,0 C 53 % 1018,8 hPa 0,0 l/m 32,5 km/h (5 Bft) O-NO67.5 65 0 min 0 lux 0 W/m
25.11.2016 16:00 8,6 C 9,0 C 53 % 1018,8 hPa 0,0 l/m 30,3 km/h (5 Bft) O-NO45 60 0 min 0 lux 0 W/m
25.11.2016 16:05 8,5 C 9,0 C 54 % 1018,8 hPa 0,0 l/m 36,6 km/h (5 Bft) NO45 55 0 min 0 lux 0 W/m
25.11.2016 16:10 8,5 C 9,0 C 53 % 1018,8 hPa 0,0 l/m 37,4 km/h (5 Bft) O-NO67.5 60 0 min 0 lux 0 W/m
25.11.2016 16:15 8,4 C 9,0 C 53 % 1018,8 hPa 0,0 l/m 28,3 km/h (5 Bft) NO45 55 0 min 0 lux 0 W/m
25.11.2016 16:20 8,5 C 9,0 C 53 % 1018,8 hPa 0,0 l/m 31,1 km/h (5 Bft) O-NO67.5 60 0 min 0 lux 0 W/m
25.11.2016 16:25 8,5 C 9,0 C 53 % 1018,8 hPa 0,0 l/m 32,2 km/h (5 Bft) O67.5 80 0 min 0 lux 0 W/m
25.11.2016 16:30 8,3 C 9,0 C 53 % 1018,8 hPa 0,0 l/m 27,1 km/h (5 Bft) O-NO67.5 60 0 min 0 lux 0 W/m
25.11.2016 16:35 8,4 C 9,0 C 54 % 1018,8 hPa 0,0 l/m 27,3 km/h (5 Bft) O67.5 85 0 min 0 lux 0 W/m
25.11.2016 16:40 8,2 C 9,0 C 54 % 1018,8 hPa 0,0 l/m 29,3 km/h (5 Bft) O-NO45 75 0 min 0 lux 0 W/m
25.11.2016 16:45 8,1 C 9,1 C 54 % 1018,8 hPa 0,0 l/m 20,2 km/h (4 Bft) O-NO67.5 70 0 min 0 lux 0 W/m
25.11.2016 16:50 8,1 C 9,0 C 54 % 1018,8 hPa 0,0 l/m 24,3 km/h (4 Bft) NO45 55 0 min 0 lux 0 W/m
25.11.2016 16:55 8,0 C 9,1 C 54 % 1018,8 hPa 0,0 l/m 18,0 km/h (3 Bft) O67.5 80 0 min 0 lux 0 W/m
25.11.2016 17:00 7,9 C 9,1 C 54 % 1018,8 hPa 0,0 l/m 19,7 km/h (3 Bft) O-NO45 60 0 min 0 lux 0 W/m
25.11.2016 17:05 7,8 C 9,0 C 54 % 1018,8 hPa 0,0 l/m 24,0 km/h (4 Bft) O-NO45 75 0 min 0 lux 0 W/m
25.11.2016 17:10 7,8 C 9,1 C 54 % 1018,8 hPa 0,0 l/m 24,6 km/h (4 Bft) O45 85 0 min 0 lux 0 W/m
25.11.2016 17:15 7,8 C 9,0 C 54 % 1018,8 hPa 0,0 l/m 30,3 km/h (5 Bft) O-NO67.5 70 0 min 0 lux 0 W/m
25.11.2016 17:20 7,6 C 9,0 C 55 % 1018,8 hPa 0,0 l/m 24,1 km/h (4 Bft) O-NO22.5 70 0 min 0 lux 0 W/m
25.11.2016 17:25 7,6 C 8,9 C 55 % 1018,8 hPa 0,0 l/m 27,3 km/h (5 Bft) O45 80 0 min 0 lux 0 W/m
25.11.2016 17:30 7,5 C 8,9 C 55 % 1018,8 hPa 0,0 l/m 24,5 km/h (4 Bft) O-NO45 70 0 min 0 lux 0 W/m
25.11.2016 17:35 7,4 C 8,9 C 55 % 1018,8 hPa 0,0 l/m 26,5 km/h (4 Bft) NO45 55 0 min 0 lux 0 W/m
25.11.2016 17:40 7,4 C 9,0 C 55 % 1018,8 hPa 0,0 l/m 28,6 km/h (5 Bft) NO45 50 0 min 0 lux 0 W/m
25.11.2016 17:45 7,4 C 8,9 C 55 % 1018,8 hPa 0,0 l/m 24,5 km/h (4 Bft) O-NO67.5 60 0 min 0 lux 0 W/m
25.11.2016 17:50 7,3 C 9,0 C 55 % 1018,8 hPa 0,0 l/m 22,8 km/h (4 Bft) O-NO45 75 0 min 0 lux 0 W/m
25.11.2016 17:55 7,2 C 9,0 C 55 % 1018,8 hPa 0,0 l/m 15,1 km/h (3 Bft) O-NO22.5 65 0 min 0 lux 0 W/m
25.11.2016 18:00 7,2 C 9,0 C 55 % 1018,8 hPa 0,0 l/m 21,8 km/h (4 Bft) O-NO45 65 0 min 0 lux 0 W/m
25.11.2016 18:05 7,2 C 8,9 C 56 % 1018,8 hPa 0,0 l/m 26,7 km/h (4 Bft) O-NO45 60 0 min 0 lux 0 W/m
25.11.2016 18:10 7,1 C 8,9 C 56 % 1018,8 hPa 0,0 l/m 31,7 km/h (5 Bft) O-NO45 60 0 min 0 lux 0 W/m
25.11.2016 18:15 7,1 C 8,9 C 56 % 1018,8 hPa 0,0 l/m 20,0 km/h (4 Bft) NO67.5 55 0 min 0 lux 0 W/m
25.11.2016 18:20 7,0 C 8,9 C 56 % 1018,8 hPa 0,0 l/m 31,5 km/h (5 Bft) O-NO45 65 0 min 0 lux 0 W/m
25.11.2016 18:25 7,0 C 8,9 C 57 % 1018,8 hPa 0,0 l/m 25,3 km/h (4 Bft) NO67.5 50 0 min 0 lux 0 W/m
25.11.2016 18:30 7,1 C 8,9 C 57 % 1018,8 hPa 0,0 l/m 22,7 km/h (4 Bft) NO22.5 50 0 min 0 lux 0 W/m
25.11.2016 18:35 6,9 C 8,8 C 59 % 1018,8 hPa 0,0 l/m 28,6 km/h (5 Bft) NO45 50 0 min 0 lux 0 W/m
25.11.2016 18:40 6,8 C 8,8 C 60 % 1018,8 hPa 0,0 l/m 27,3 km/h (5 Bft) O-NO67.5 60 0 min 0 lux 0 W/m
25.11.2016 18:45 6,8 C 8,8 C 60 % 1018,8 hPa 0,0 l/m 24,1 km/h (4 Bft) NO45 55 0 min 0 lux 0 W/m
25.11.2016 18:50 6,7 C 8,8 C 61 % 1019,9 hPa 0,0 l/m 23,3 km/h (4 Bft) O-NO45 60 0 min 0 lux 0 W/m
25.11.2016 18:55 6,6 C 8,8 C 61 % 1018,9 hPa 0,0 l/m 25,0 km/h (4 Bft) O-NO45 60 0 min 0 lux 0 W/m
25.11.2016 19:01 6,5 C 8,8 C 62 % 1019,9 hPa 0,0 l/m 27,9 km/h (5 Bft) O-NO45 70 0 min 0 lux 0 W/m
25.11.2016 19:05 6,5 C 8,8 C 62 % 1019,9 hPa 0,0 l/m 25,3 km/h (4 Bft) O-NO45 65 0 min 0 lux 0 W/m
25.11.2016 19:10 6,4 C 8,8 C 63 % 1019,9 hPa 0,0 l/m 21,7 km/h (4 Bft) O-NO45 65 0 min 0 lux 0 W/m
25.11.2016 19:15 6,2 C 8,8 C 64 % 1019,9 hPa 0,0 l/m 23,8 km/h (4 Bft) NO45 55 0 min 0 lux 0 W/m
25.11.2016 19:20 6,2 C 8,8 C 64 % 1019,9 hPa 0,0 l/m 28,0 km/h (5 Bft) O-NO45 75 0 min 0 lux 0 W/m
25.11.2016 19:25 6,2 C 8,7 C 65 % 1019,9 hPa 0,0 l/m 20,5 km/h (4 Bft) O-NO22.5 65 0 min 0 lux 0 W/m
25.11.2016 19:30 6,0 C 8,7 C 65 % 1019,9 hPa 0,0 l/m 31,8 km/h (5 Bft) O-NO67.5 75 0 min 0 lux 0 W/m
25.11.2016 19:35 6,0 C 8,7 C 65 % 1019,9 hPa 0,0 l/m 24,4 km/h (4 Bft) O-NO22.5 75 0 min 0 lux 0 W/m
25.11.2016 19:40 5,9 C 8,7 C 66 % 1019,9 hPa 0,0 l/m 27,6 km/h (5 Bft) O45 80 0 min 0 lux 0 W/m
25.11.2016 19:45 5,8 C 8,7 C 66 % 1019,9 hPa 0,0 l/m 24,1 km/h (4 Bft) O67.5 80 0 min 0 lux 0 W/m
25.11.2016 19:50 5,7 C 8,7 C 66 % 1019,9 hPa 0,0 l/m 29,8 km/h (5 Bft) O45 90 0 min 0 lux 0 W/m
25.11.2016 19:55 5,6 C 8,7 C 67 % 1019,9 hPa 0,0 l/m 26,7 km/h (4 Bft) O67.5 80 0 min 0 lux 0 W/m
25.11.2016 20:00 5,5 C 8,7 C 67 % 1019,9 hPa 0,0 l/m 23,7 km/h (4 Bft) O67.5 80 0 min 0 lux 0 W/m
25.11.2016 20:05 5,5 C 8,7 C 67 % 1019,9 hPa 0,0 l/m 30,0 km/h (5 Bft) O-NO45 75 0 min 0 lux 0 W/m
25.11.2016 20:10 5,4 C 8,6 C 67 % 1019,9 hPa 0,0 l/m 36,6 km/h (5 Bft) O-NO45 75 0 min 0 lux 0 W/m
25.11.2016 20:15 5,4 C 8,5 C 67 % 1019,9 hPa 0,0 l/m 27,1 km/h (5 Bft) O45 80 0 min 0 lux 0 W/m
25.11.2016 20:20 5,3 C 8,5 C 68 % 1019,9 hPa 0,0 l/m 24,4 km/h (4 Bft) O-NO67.5 75 0 min 0 lux 0 W/m
25.11.2016 20:25 5,3 C 8,6 C 68 % 1019,9 hPa 0,0 l/m 28,4 km/h (5 Bft) O-NO45 70 0 min 0 lux 0 W/m
25.11.2016 20:30 5,2 C 8,5 C 68 % 1019,9 hPa 0,0 l/m 26,5 km/h (4 Bft) O22.5 90 0 min 0 lux 0 W/m
25.11.2016 20:35 5,1 C 8,5 C 68 % 1019,9 hPa 0,0 l/m 24,5 km/h (4 Bft) O-NO22.5 70 0 min 0 lux 0 W/m
25.11.2016 20:40 5,1 C 8,5 C 68 % 1019,9 hPa 0,0 l/m 22,5 km/h (4 Bft) O45 80 0 min 0 lux 0 W/m
25.11.2016 20:45 4,9 C 8,5 C 69 % 1019,9 hPa 0,0 l/m 21,1 km/h (4 Bft) O67.5 80 0 min 0 lux 0 W/m
25.11.2016 20:50 4,9 C 8,5 C 69 % 1019,9 hPa 0,0 l/m 26,0 km/h (4 Bft) O67.5 80 0 min 0 lux 0 W/m
25.11.2016 20:55 4,8 C 8,6 C 69 % 1019,9 hPa 0,0 l/m 15,0 km/h (3 Bft) O22.5 80 0 min 0 lux 0 W/m
25.11.2016 21:00 4,8 C 8,6 C 69 % 1019,9 hPa 0,0 l/m 21,0 km/h (4 Bft) O45 85 0 min 0 lux 0 W/m
25.11.2016 21:05 4,7 C 8,6 C 69 % 1019,9 hPa 0,0 l/m 18,1 km/h (3 Bft) O22.5 80 0 min 0 lux 0 W/m
25.11.2016 21:11 4,7 C 8,6 C 69 % 1019,9 hPa 0,0 l/m 22,8 km/h (4 Bft) O-NO22.5 70 0 min 0 lux 0 W/m
25.11.2016 21:15 4,7 C 8,6 C 69 % 1019,9 hPa 0,0 l/m 26,1 km/h (4 Bft) O-NO67.5 60 0 min 0 lux 0 W/m
25.11.2016 21:20 4,7 C 8,5 C 69 % 1019,9 hPa 0,0 l/m 21,2 km/h (4 Bft) O45 90 0 min 0 lux 0 W/m
25.11.2016 21:25 4,7 C 8,5 C 69 % 1019,9 hPa 0,0 l/m 25,0 km/h (4 Bft) O45 80 0 min 0 lux 0 W/m
25.11.2016 21:30 4,6 C 8,5 C 69 % 1019,9 hPa 0,0 l/m 20,0 km/h (4 Bft) O-NO45 75 0 min 0 lux 0 W/m
25.11.2016 21:35 4,6 C 8,4 C 69 % 1019,9 hPa 0,0 l/m 21,1 km/h (4 Bft) O-NO22.5 75 0 min 0 lux 0 W/m
25.11.2016 21:40 4,7 C 8,5 C 69 % 1019,9 hPa 0,0 l/m 28,5 km/h (5 Bft) O-NO45 75 0 min 0 lux 0 W/m
25.11.2016 21:45 4,7 C 8,5 C 69 % 1019,9 hPa 0,0 l/m 22,9 km/h (4 Bft) O-NO45 70 0 min 0 lux 0 W/m
25.11.2016 21:50 4,9 C 8,5 C 69 % 1019,9 hPa 0,0 l/m 23,7 km/h (4 Bft) O-NO67.5 60 0 min 0 lux 0 W/m
25.11.2016 21:55 5,2 C 8,5 C 69 % 1019,9 hPa 0,0 l/m 21,1 km/h (4 Bft) NO45 55 0 min 0 lux 0 W/m
25.11.2016 22:00 5,2 C 8,5 C 69 % 1019,9 hPa 0,0 l/m 21,8 km/h (4 Bft) O-NO22.5 65 0 min 0 lux 0 W/m
25.11.2016 22:05 5,2 C 8,5 C 69 % 1019,9 hPa 0,0 l/m 20,3 km/h (4 Bft) O-NO45 70 0 min 0 lux 0 W/m
25.11.2016 22:10 5,2 C 8,5 C 69 % 1019,9 hPa 0,0 l/m 23,6 km/h (4 Bft) O-NO45 65 0 min 0 lux 0 W/m
25.11.2016 22:15 5,2 C 8,4 C 69 % 1019,9 hPa 0,0 l/m 12,2 km/h (2 Bft) O-NO67.5 75 0 min 0 lux 0 W/m
25.11.2016 22:20 5,2 C 8,5 C 69 % 1019,9 hPa 0,0 l/m 19,8 km/h (3 Bft) O45 90 0 min 0 lux 0 W/m
25.11.2016 22:25 5,1 C 8,4 C 69 % 1019,9 hPa 0,0 l/m 17,1 km/h (3 Bft) O67.5 90 0 min 0 lux 0 W/m
25.11.2016 22:30 4,9 C 8,5 C 69 % 1019,9 hPa 0,0 l/m 15,2 km/h (3 Bft) O-SO45 105 0 min 0 lux 0 W/m
25.11.2016 22:35 4,8 C 8,4 C 69 % 1019,9 hPa 0,0 l/m 16,6 km/h (3 Bft) O67.5 95 0 min 0 lux 0 W/m
25.11.2016 22:40 4,7 C 8,5 C 69 % 1019,9 hPa 0,0 l/m 7,1 km/h (2 Bft) O-SO22.5 105 0 min 0 lux 0 W/m
25.11.2016 22:45 4,7 C 8,5 C 69 % 1019,9 hPa 0,0 l/m 14,4 km/h (3 Bft) O22.5 90 0 min 0 lux 0 W/m
25.11.2016 22:50 4,7 C 8,5 C 69 % 1019,9 hPa 0,0 l/m 15,8 km/h (3 Bft) O45 80 0 min 0 lux 0 W/m
25.11.2016 22:55 4,7 C 8,4 C 69 % 1019,9 hPa 0,0 l/m 16,1 km/h (3 Bft) O-NO45 75 0 min 0 lux 0 W/m
25.11.2016 23:00 4,6 C 8,4 C 68 % 1019,9 hPa 0,0 l/m 19,6 km/h (3 Bft) O45 90 0 min 0 lux 0 W/m
25.11.2016 23:05 4,6 C 8,4 C 68 % 1019,9 hPa 0,0 l/m 20,1 km/h (4 Bft) O45 80 0 min 0 lux 0 W/m
25.11.2016 23:10 4,6 C 8,5 C 68 % 1019,9 hPa 0,0 l/m 16,4 km/h (3 Bft) O67.5 90 0 min 0 lux 0 W/m
25.11.2016 23:15 4,5 C 8,4 C 69 % 1019,9 hPa 0,0 l/m 14,4 km/h (3 Bft) O22.5 85 0 min 0 lux 0 W/m
25.11.2016 23:20 4,5 C 8,5 C 69 % 1019,9 hPa 0,0 l/m 12,1 km/h (2 Bft) O45 90 0 min 0 lux 0 W/m
25.11.2016 23:25 4,5 C 8,4 C 69 % 1019,9 hPa 0,0 l/m 11,8 km/h (2 Bft) O22.5 80 0 min 0 lux 0 W/m
25.11.2016 23:31 4,5 C 8,4 C 68 % 1019,9 hPa 0,0 l/m 17,0 km/h (3 Bft) O45 80 0 min 0 lux 0 W/m
25.11.2016 23:35 4,5 C 8,4 C 68 % 1019,9 hPa 0,0 l/m 14,7 km/h (3 Bft) O-NO45 60 0 min 0 lux 0 W/m
25.11.2016 23:40 4,5 C 8,4 C 68 % 1019,9 hPa 0,0 l/m 13,9 km/h (3 Bft) NO22.5 45 0 min 0 lux 0 W/m
25.11.2016 23:45 4,5 C 8,3 C 69 % 1019,9 hPa 0,0 l/m 1,3 km/h (1 Bft) O-NO 75 0 min 0 lux 0 W/m
25.11.2016 23:50 4,6 C 8,2 C 69 % 1019,9 hPa 0,0 l/m 1,6 km/h (1 Bft) O-NO 70 0 min 0 lux 0 W/m
25.11.2016 23:55 4,6 C 8,2 C 69 % 1019,9 hPa 0,0 l/m 5,3 km/h (1 Bft) NO22.5 40 0 min 0 lux 0 W/m
_ Min-Zeit 07:50 09:10 15:50 14:35 - 23:45 - - - - -
Minimum _ 3,1 C 7,7 C 53 % 1017,8 hPa - 1,3 km/h (1 Bft) - - - - -
_ Max-Zeit 14:20 14:20 05:05 09:10 00:00 05:45 - - 00:00 00:00 00:00
Maximum _ 9,4 C 9,8 C 83 % 1019,9 hPa 0,0 l/m 43,4 km/h
NO (6 Bft)
- - 0 min 0,000 klux 0 W/m
Durchschnitt _ 5,7 C 8,7 C 70 % 1019,3 hPa #0,0 l/m 24,7 km/h (4 Bft) NO - #0 min. 0,000 klux 0 W/m